This demonstration page uses our WeatherBlox Daily Observations layout. Learn more.

Left ArrowRight Arrow

Hourly Observations for August 29, 2021

Temp ( °F °C ) Dew Point ( °F °C ) Humidity (%) Winds ( mph kmh ) Pressure ( in mb ) Visibility ( mi km ) Precip ( " mm )
12:56 am 00:56 Mostly Cloudy 67 19.4 64 17.8 91 91 NE 14 22 29.98 1015 10 16 0.00 0.00
1:47 am 01:47 Cloudy 66 19 64 18 94 94 NE 14 22 29.99 1016 10 16 0.00 0.00
1:56 am 01:56 Cloudy 67 19.4 64 17.8 91 91 NNE 9 15 30.01 1016 10 16 0.00 0.00
2:56 am 02:56 Cloudy 67 19.4 65 18.3 93 93 NE 10 17 30.01 1016 10 16 0.00 0.00
3:09 am 03:09 Cloudy 66 19 64 18 94 94 ENE 9 15 30.00 1016 10 16 0.00 0.00
3:35 am 03:35 Mostly Cloudy with Nearby Thunderstorms 66 19 64 18 94 94 NE 7 11 30.00 1016 10 16 0.00 0.00
3:56 am 03:56 Cloudy with Thunderstorms 66 18.9 65 18.3 96 96 N 10 17 30.02 1017 9 14 0.00 0.00
4:56 am 04:56 Mostly Cloudy with Nearby Thunderstorms 65 18.3 64 17.8 97 97 SSW 7 11 30.04 1017 10 16 0.11 2.79
5:20 am 05:20 Partly Cloudy 66 19 64 18 94 94 N 7 11 30.00 1016 10 16 0.01 0.25
5:52 am 05:52 Mostly Cloudy 66 19 64 18 94 94 NNW 7 11 30.02 1017 10 16 0.01 0.25
5:56 am 05:56 Mostly Cloudy 66 18.9 64 17.8 93 93 NNE 8 13 30.02 1017 10 16 0.01 0.25
6:11 am 06:11 Partly Cloudy 64 18 64 18 100 100 NE 8 13 30.02 1017 8 13 0.00 0.00
6:34 am 06:34 Mostly Cloudy 64 18 64 18 100 100 E 6 9 30.03 1017 8 13 0.00 0.00
6:49 am 06:49 Cloudy 64 18 64 18 100 100 ENE 7 11 30.03 1017 8 13 0.00 0.00
6:56 am 06:56 Cloudy 65 18.3 65 18.3 100 100 ENE 8 13 30.04 1017 8 13 0.00 0.00
7:33 am 07:33 Cloudy 64 18 64 18 100 100 NE 9 15 30.07 1018 10 16 0.00 0.00
7:49 am 07:49 Cloudy 64 18 64 18 100 100 NE 9 15 30.08 1019 10 16 0.00 0.00
7:56 am 07:56 Cloudy 65 18.3 63 17.2 93 93 NNE 9 15 30.10 1019 10 16 0.00 0.00
8:56 am 08:56 Cloudy 64 17.8 62 16.7 93 93 N 10 17 30.12 1020 9 14 0.00 0.00
9:56 am 09:56 Cloudy 64 17.8 61 16.1 90 90 N 7 11 30.12 1020 10 16 0.00 0.00
10:56 am 10:56 Cloudy 67 19.4 62 16.7 84 84 NNE 10 17 30.11 1020 10 16 0.00 0.00
11:43 am 11:43 Mostly Sunny 72 22 64 18 78 78 NNE 8 13 30.05 1018 10 16 0.00 0.00
11:56 am 11:56 Mostly Cloudy 71 21.7 64 17.8 79 79 NE 10 17 30.10 1019 10 16 0.00 0.00
12:05 pm 12:05 Mostly Cloudy 72 22 64 18 78 78 NNE 7 11 30.05 1018 10 16 0.00 0.00
12:56 pm 12:56 Cloudy 72 22.2 64 17.8 76 76 VRB 3 6 30.09 1019 10 16 0.00 0.00
1:56 pm 13:56 Cloudy 75 23.9 64 17.8 69 69 Calm 30.08 1019 10 16 0.00 0.00
2:56 pm 14:56 Cloudy 75 23.9 65 18.3 71 71 VRB 5 7 30.07 1018 10 16 0.00 0.00
3:24 pm 15:24 Cloudy 75 24 64 18 69 69 VRB 3 6 30.01 1016 10 16 0.00 0.00
3:56 pm 15:56 Cloudy 76 24.4 64 17.8 67 67 Calm 30.06 1018 10 16 0.00 0.00
4:56 pm 16:56 Cloudy 77 25 65 18.3 66 66 E 3 6 30.04 1017 10 16 0.00 0.00
5:56 pm 17:56 Mostly Cloudy 77 25 65 18.3 66 66 Calm 30.02 1017 10 16 0.00 0.00
6:56 pm 18:56 Cloudy 76 24.4 66 18.9 72 72 E 8 13 30.01 1016 10 16 0.00 0.00
7:56 pm 19:56 Cloudy 74 23.3 68 20 82 82 E 5 7 30.02 1017 10 16 0.00 0.00
8:56 pm 20:56 Mostly Cloudy 71 21.7 67 19.4 87 87 ESE 8 13 30.04 1017 10 16 0.00 0.00
9:56 pm 21:56 Cloudy 70 21.1 66 18.9 87 87 ESE 8 13 30.04 1017 10 16 0.00 0.00
10:56 pm 22:56 Mostly Cloudy 68 20 65 18.3 90 90 SE 8 13 30.05 1018 10 16 0.00 0.00
11:56 pm 23:56 Cloudy 68 20 65 18.3 90 90 SE 8 13 30.04 1017 10 16 0.00 0.00

Powered by AerisWeather